Mansfield, OH

2:44 AM EDT on October 23, 2019 (GMT -0400)
Mansfield Lahm Regional

Weather History for KMFD - August, 2019

Change the Weather History Date:

Tuesday, August 20, 2019

  Actual Average Record
Temperature  
Mean Temperature 80 °F 70 °F  
Max Temperature 90 °F 80 °F 93 °F (1983)
Min Temperature 69 °F 60 °F 42 °F (1957)
Degree Days  
Heating Degree Days 0 1  
Month to date heating degree days 0 1  
Since 1 June heating degree days 30 62  
Since 1 July heating degree days 0 9  
Cooling Degree Days 15 5  
Month to date cooling degree days 185 118  
Year to date cooling degree days 739 508  
Since 1 June cooling degree days 671 462  
Growing Degree Days 30 (Base 50)    
Moisture  
Dew Point 69 °F    
Average Humidity 78    
Maximum Humidity 100    
Minimum Humidity 56    
Precipitation  
Precipitation 0.33 in 0.14 in 1.96 in (2007)
Month to date precipitation 1.40 2.86  
Year to date precipitation 35.89 29.32  
Snow  
Snow 0.00 in 0.00 in - ()
Month to date snowfall 0.0 0.0  
Since 1 June snowfall 0.0 0.0  
Since 1 July snowfall 0.0 0.0  
Snow Depth 0.00 in    
Sea Level Pressure  
Sea Level Pressure 30.02 in    
Wind  
Wind Speed 6 mph (SSE)    
Max Wind Speed 30 mph    
Max Gust Speed 38 mph    
Visibility 9 miles    
Events Rain , Thunderstorm    
T = Trace of Precipitation, MM = Missing Value Source: NWS Daily Summary

Daily Weather History Graph

Daily Weather History Graph

Search for Another Location

Airport or City:

Astronomy

Aug. 20, 2019 Rise Set
Actual Time 6:44 AM EDT 8:21 PM EDT
Civil Twilight 6:15 AM EDT 8:50 PM EDT
Nautical Twilight 5:40 AM EDT 9:25 PM EDT
Astronomical Twilight 5:03 AM EDT 10:02 PM EDT
Moon 11:07 PM EDT (8/20) 11:23 AM EDT (8/20)
Length of Visible Light 14h 34m
Length of Day
13h 36m
Waning Gibbous, 78% of the Moon is Illuminated
Aug 20
Waning Gibbous
Aug 23
Last Quarter
Aug 30
New
Sep 5
First Quarter
Sep 14
Full

Hourly Weather History & Observations

Time (EDT) Temp. Heat Index Dew Point Humidity Pressure Visibility Wind Dir Wind Speed Gust Speed Precip Events Conditions
12:52 AM 72.0 °F - 70.0 °F 93% 30.07 in 10.0 mi ESE 4.6 mph - N/A   Clear
1:52 AM 71.1 °F - 69.1 °F 93% 30.08 in 10.0 mi SSE 3.5 mph - N/A   Clear
2:52 AM 71.1 °F - 70.0 °F 96% 30.07 in 9.0 mi Calm Calm - N/A   Clear
3:52 AM 71.1 °F - 70.0 °F 96% 30.07 in 9.0 mi SSE 3.5 mph - N/A   Clear
5:52 AM 70.0 °F - 69.1 °F 97% 30.07 in 9.0 mi ESE 3.5 mph - N/A   Partly Cloudy
6:52 AM 70.0 °F - 68.0 °F 93% 30.07 in 10.0 mi SE 4.6 mph - N/A   Clear
7:52 AM 73.0 °F - 70.0 °F 90% 30.07 in 10.0 mi SE 4.6 mph - N/A   Clear
8:52 AM 77.0 °F - 71.1 °F 82% 30.07 in 10.0 mi ESE 5.8 mph - N/A   Scattered Clouds
9:52 AM 81.0 °F 84.4 °F 70.0 °F 69% 30.08 in 10.0 mi SSE 5.8 mph - N/A   Clear
10:52 AM 84.0 °F 89.6 °F 72.0 °F 67% 30.08 in 10.0 mi SE 11.5 mph - N/A   Clear
11:52 AM 86.0 °F 92.2 °F 72.0 °F 63% 30.07 in 10.0 mi South 9.2 mph - N/A   Clear
12:52 PM 88.0 °F 93.8 °F 71.1 °F 57% 30.05 in 10.0 mi South 11.5 mph - N/A   Scattered Clouds
1:52 PM 87.1 °F 92.8 °F 71.1 °F 59% 30.04 in 9.0 mi South 8.1 mph - N/A   Mostly Cloudy
2:52 PM 88.0 °F 93.8 °F 71.1 °F 57% 30.02 in 10.0 mi South 8.1 mph - N/A   Mostly Cloudy
3:52 PM 88.0 °F 93.8 °F 71.1 °F 57% 29.99 in 10.0 mi SSW 9.2 mph - N/A   Scattered Clouds
4:52 PM 89.1 °F 95.0 °F 71.1 °F 55% 29.96 in 10.0 mi SSE 8.1 mph - N/A   Scattered Clouds
5:19 PM 87.1 °F 92.8 °F 71.1 °F 59% 30.00 in 9.0 mi South 5.8 mph - N/A Thunderstorm Mostly Cloudy
5:35 PM 81.0 °F 83.0 °F 66.0 °F 60% 30.02 in 9.0 mi SSW 25.3 mph 38.0 mph N/A Thunderstorm Thunderstorm
5:44 PM 70.0 °F - 64.0 °F 81% 30.03 in 0.8 mi SSE 19.6 mph 34.5 mph 0.09 in Rain , Thunderstorm Heavy Thunderstorms and Rain
5:52 PM 72.0 °F - 66.0 °F 81% 30.00 in 0.8 mi SE 10.4 mph 34.5 mph 0.33 in Rain , Thunderstorm Light Thunderstorms and Rain
5:55 PM 71.1 °F - 64.9 °F 81% 30.02 in 4.0 mi ESE 6.9 mph 24.2 mph 0.00 in Rain , Thunderstorm Light Thunderstorms and Rain
6:21 PM 71.1 °F - 68.0 °F 90% 30.03 in 10.0 mi Variable 6.9 mph - 0.00 in Thunderstorm Overcast
6:33 PM 72.0 °F - 68.0 °F 87% 30.02 in 10.0 mi SSE 6.9 mph - 0.00 in   Mostly Cloudy
6:48 PM 73.4 °F - 68.0 °F 83% 30.00 in 10.0 mi SE 6.9 mph - 0.00 in Thunderstorm Partly Cloudy
6:52 PM 73.0 °F - 68.0 °F 84% 29.96 in 10.0 mi SE 6.9 mph - 0.00 in Thunderstorm Partly Cloudy
7:03 PM 73.0 °F - 66.9 °F 81% 29.99 in 10.0 mi ESE 4.6 mph - N/A   Clear
7:12 PM 73.0 °F - 68.0 °F 84% 29.99 in 10.0 mi ESE 3.5 mph - N/A Thunderstorm Clear
7:27 PM 73.0 °F - 68.0 °F 84% 29.99 in 10.0 mi ESE 6.9 mph - N/A   Clear
7:52 PM 72.0 °F - 70.0 °F 93% 29.96 in 10.0 mi SE 5.8 mph - N/A   Clear
8:52 PM 71.1 °F - 70.0 °F 96% 29.96 in 10.0 mi Calm Calm - N/A   Mostly Cloudy
9:52 PM 70.0 °F - 69.1 °F 97% 29.95 in 10.0 mi SSE 3.5 mph - N/A   Clear
10:52 PM 72.0 °F - 70.0 °F 93% 29.95 in 10.0 mi SSE 5.8 mph - N/A   Mostly Cloudy
11:52 PM 72.0 °F - 70.0 °F 93% 29.95 in 10.0 mi SW 4.6 mph - N/A   Mostly Cloudy